Location: Newark
(51.3318°N, 0.0053°E)
Time: 16:00:05
(UTC+00:00)

X-37B - Visible Passes

Search period start: 22 January 2022 00:00
Search period end: 01 February 2022 00:00
Orbit: 334 x 337 km, 45.0° (Epoch: 11 January)

Date Brightness Start Highest point End Pass type
(mag) Time Alt. Az. Time Alt. Az. Time Alt. Az.
29 Jan 2.7 18:17:05 10° SSW 18:18:37 14° SSE 18:19:08 13° SSE visible
30 Jan 2.3 18:36:37 10° SW 18:38:45 19° SSE 18:38:45 19° SSE visible
31 Jan 2.9 17:22:32 10° SSW 17:24:03 14° SSE 17:25:35 10° SE visible
31 Jan 2.4 18:56:37 10° SW 18:58:21 21° SSW 18:58:21 21° SSW visible
